Location: Unspecified
(47.9110°N, 14.3980°E)
Time: 17:12:34
(UTC+00:00)

Cosmos 1812 - Pass Details

Date: 06 August 2020
Orbit: 517 x 520 km, 82.5° (Epoch: 25 September)

Event Time Altitude Azimuth Distance (km) Brightness Sun altitude
Rises 19:43:33 0° 350° (N) 2,654 7.2 -11.2°
Reaches altitude 10° 19:45:42 10° 351° (N) 1,761 6.2 -11.4°
Maximum altitude 19:49:34 90° 248° (WSW) 525 2.7 -11.9°
Enters shadow 19:53:01 13° 172° (S) 1,588 4.7 -12.4°
